2023/08/19 00:00:00, 0.2,24.5
2023/08/19 00:10:00, 0.2,24.7
2023/08/19 00:20:00, 0.2,24.4
2023/08/19 00:30:00, 0.2,24.3
2023/08/19 00:40:00, 0.2,24.4
2023/08/19 00:50:00, 0.2,24.6
2023/08/19 01:00:00, 0.1,24.5
2023/08/19 01:10:00, 0.2,24.5
2023/08/19 01:20:00, 0.2,24.4
2023/08/19 01:30:00, 0.2,24.5
2023/08/19 01:40:00, 0.2,24.4
2023/08/19 01:50:00, 0.2,24.2
2023/08/19 02:00:00, 0.2,24.6
2023/08/19 02:10:00, 0.2,24.3
2023/08/19 02:20:00, 0.2,24.5
2023/08/19 02:30:00, 0.2,24.3
2023/08/19 02:40:00, 0.2,24.3
2023/08/19 02:50:00, 0.1,24.3
2023/08/19 03:00:00, 0.1,24.2
2023/08/19 03:10:00, 0.1,24.0
2023/08/19 03:20:00, 0.1,24.0
2023/08/19 03:30:00, 0.1,24.0
2023/08/19 03:40:00, 0.2,24.2
2023/08/19 03:50:00, 0.2,23.9
2023/08/19 04:00:00, 0.2,24.0
2023/08/19 04:10:00, 0.2,24.0
2023/08/19 04:20:00, 0.2,24.0
2023/08/19 04:30:00, 0.2,24.1
2023/08/19 04:40:00, 0.2,23.9
2023/08/19 04:50:00, 0.2,24.0
2023/08/19 05:00:00, 0.1,24.0
2023/08/19 05:10:00, 0.1,24.0
2023/08/19 05:20:00, 0.2,24.0
2023/08/19 05:30:00, 0.2,23.8
2023/08/19 05:40:00, 0.2,23.8
2023/08/19 05:50:00, 0.2,24.0
2023/08/19 06:00:00, 0.2,24.0
2023/08/19 06:10:00, 0.1,24.0
2023/08/19 06:20:00, 0.2,24.2
2023/08/19 06:30:00, 0.3,24.5
2023/08/19 06:40:00, 0.3,24.7
2023/08/19 06:50:00, 0.3,25.1
2023/08/19 07:00:00, 0.4,25.4
2023/08/19 07:10:00, 0.5,25.7
2023/08/19 07:20:00, 0.6,26.1
2023/08/19 07:30:00, 0.6,26.5
2023/08/19 07:40:00, 0.5,27.0
2023/08/19 07:50:00, 0.4,27.0
2023/08/19 08:00:00, 0.5,27.5
2023/08/19 08:10:00, 0.5,27.6
2023/08/19 08:20:00, 0.6,28.0
2023/08/19 08:30:00, 0.5,28.2
2023/08/19 08:40:00, 0.5,29.0
2023/08/19 08:50:00, 0.5,29.9
2023/08/19 09:00:00, 0.6,30.6
2023/08/19 09:10:00, 0.5,31.1
2023/08/19 09:20:00, 0.6,31.2
2023/08/19 09:30:00, 0.8,31.7
2023/08/19 09:40:00, 0.5,31.1
2023/08/19 09:50:00, 0.6,31.0
2023/08/19 10:00:00, 0.7,30.7
2023/08/19 10:10:00, 0.6,30.8
2023/08/19 10:20:00, 0.5,30.5
2023/08/19 10:30:00, 0.5,30.6
2023/08/19 10:40:00, 0.5,30.8
2023/08/19 10:50:00, 0.5,30.7
2023/08/19 11:00:00, 0.7,30.8
2023/08/19 11:10:00, 1.2,31.1
2023/08/19 11:20:00, 0.6,30.5
2023/08/19 11:30:00,38.2,31.4
2023/08/19 11:40:00,23.5,31.8
2023/08/19 11:50:00,---,31.8
2023/08/19 12:00:00, 1.5,31.8
2023/08/19 12:10:00, 1.3,32.0
2023/08/19 12:20:00,---,31.9
2023/08/19 12:30:00, 1.3,31.4
2023/08/19 12:40:00, 1.4,31.6
2023/08/19 12:50:00, 0.9,31.4
2023/08/19 13:00:00, 1.1,31.4
2023/08/19 13:10:00, 1.0,31.5
2023/08/19 13:20:00, 1.1,31.6
2023/08/19 13:30:00, 1.0,31.5
2023/08/19 13:40:00, 1.1,31.6
2023/08/19 13:50:00, 1.1,32.2
2023/08/19 14:00:00, 0.6,32.2
2023/08/19 14:10:00, 0.4,31.8
2023/08/19 14:20:00, 0.4,32.3
2023/08/19 14:30:00, 0.3,32.2
2023/08/19 14:40:00, 0.3,32.0
2023/08/19 14:50:00, 0.3,31.7
2023/08/19 15:00:00, 0.3,32.4
2023/08/19 15:10:00, 0.4,32.1
2023/08/19 15:20:00, 0.3,33.4
2023/08/19 15:30:00, 0.3,32.5
2023/08/19 15:40:00, 0.3,33.6
2023/08/19 15:50:00, 0.4,34.5
2023/08/19 16:00:00, 0.5,34.7
2023/08/19 16:10:00, 0.6,34.9
2023/08/19 16:20:00, 0.5,34.7
2023/08/19 16:30:00, 0.4,35.3
2023/08/19 16:40:00, 0.3,35.3
2023/08/19 16:50:00, 0.3,35.9
2023/08/19 17:00:00, 0.2,36.0
2023/08/19 17:10:00, 0.2,34.6
2023/08/19 17:20:00, 0.2,33.5
2023/08/19 17:30:00, 0.2,34.3
2023/08/19 17:40:00, 0.2,34.3
2023/08/19 17:50:00, 0.2,34.5
2023/08/19 18:00:00, 0.2,31.8
2023/08/19 18:10:00, 0.2,30.4
2023/08/19 18:20:00, 0.0,29.6
2023/08/19 18:30:00, 0.0,29.1
2023/08/19 18:40:00, 0.0,28.7
2023/08/19 18:50:00, 0.0,28.2
2023/08/19 19:00:00, 0.0,27.9
2023/08/19 19:10:00, 0.0,27.7
2023/08/19 19:20:00, 0.1,27.6
2023/08/19 19:30:00, 0.1,27.1
2023/08/19 19:40:00, 0.1,27.2
2023/08/19 19:50:00, 0.1,26.8
2023/08/19 20:00:00, 0.1,26.9
2023/08/19 20:10:00, 0.1,26.8
2023/08/19 20:20:00, 0.1,26.8
2023/08/19 20:30:00, 0.1,26.8
2023/08/19 20:40:00, 0.2,26.6
2023/08/19 20:50:00, 0.1,26.8
2023/08/19 21:00:00, 0.1,26.7
2023/08/19 21:10:00, 0.1,26.5
2023/08/19 21:20:00, 0.1,26.0
2023/08/19 21:30:00, 0.1,26.2
2023/08/19 21:40:00, 0.1,26.0
2023/08/19 21:50:00, 0.1,26.3
2023/08/19 22:00:00, 0.1,26.2
2023/08/19 22:10:00, 0.1,26.1
2023/08/19 22:20:00, 0.1,26.1
2023/08/19 22:30:00, 0.2,26.0
2023/08/19 22:40:00, 0.2,25.6
2023/08/19 22:50:00, 0.1,25.7
2023/08/19 23:00:00, 0.1,25.6
2023/08/19 23:10:00, 0.1,25.4
2023/08/19 23:20:00, 0.1,25.6
2023/08/19 23:30:00, 0.2,25.4
2023/08/19 23:40:00, 0.2,25.3
2023/08/19 23:50:00, 0.2,25.3
